Weather History for Appleton, MN

Change the Weather History Date:

Tuesday, January 1, 2013

  Actual Average Record
Temperature  
Mean Temperature 6 °F -  
Max Temperature 24 °F 20 °F 44 °F (1998)
Min Temperature -11 °F 5 °F -20 °F (2001)
Degree Days  
Heating Degree Days 58    
Moisture  
Dew Point 8 °F    
Average Humidity 83    
Maximum Humidity 93    
Minimum Humidity 73    
Precipitation  
Precipitation 0.00 in - - ()
Sea Level Pressure  
Sea Level Pressure 30.12 in    
Wind  
Wind Speed 4 mph (South)    
Max Wind Speed 16 mph    
Max Gust Speed 18 mph    
Visibility 10 miles    
Events Snow    
Averages and records for this station are not official NWS values.
T = Trace of Precipitation, MM = Missing Value Source: NWS Daily Summary

Daily Weather History Graph

Daily Weather History Graph

Search for Another Location

Airport:

Trip Planner

Search our weather history database for the weather conditions in past years. The results will help you decide how hot, cold, wet, or windy it might be!

Date:

Astronomy

Jan. 01, 2013 Rise Set
Actual Time 8:03 AM CST 4:52 PM CST
Civil Twilight 7:29 AM CST 5:26 PM CST
Nautical Twilight 6:52 AM CST 6:03 PM CST
Astronomical Twilight 6:16 AM CST 6:39 PM CST
Moon 9:38 PM CST (1/1) 10:03 AM CST (1/1)
Length of Visible Light 9h 57m
Length of Day
8h 49m
Waning Gibbous, 83% of the Moon is Illuminated
Jan 1
Waning Gibbous
Jan 4
Last Quarter
Jan 11
New
Jan 18
First Quarter
Jan 26
Full

Hourly Weather History & Observations

Time (CST) Temp. Windchill Dew Point Humidity Pressure Visibility Wind Dir Wind Speed Gust Speed Precip Events Conditions
12:14 AM -11.2 °F - -16.6 °F 77% 30.26 in 10.0 mi Calm Calm - N/A   Clear
12:34 AM -11.2 °F - -16.6 °F 77% 30.26 in 10.0 mi Calm Calm - N/A   Scattered Clouds
12:53 AM -11.2 °F - -16.6 °F 77% 30.26 in 10.0 mi Calm Calm - N/A   Mostly Cloudy
1:14 AM -11.2 °F - -16.6 °F 77% 30.26 in 10.0 mi Calm Calm - N/A   Scattered Clouds
1:34 AM -9.4 °F - -14.8 °F 77% 30.26 in 10.0 mi Calm Calm - N/A   Mostly Cloudy
1:53 AM -7.6 °F - -13.0 °F 77% 30.26 in 10.0 mi Calm Calm - N/A   Overcast
2:14 AM -5.8 °F - -9.4 °F 84% 30.25 in 10.0 mi Calm Calm - N/A   Overcast
2:34 AM -2.2 °F - -7.6 °F 78% 30.25 in 10.0 mi Calm Calm - N/A Snow Light Snow
2:53 AM -2.2 °F - -5.8 °F 85% 30.24 in 10.0 mi Calm Calm - N/A Snow Light Snow
3:13 AM -0.4 °F - -5.8 °F 78% 30.24 in 10.0 mi Calm Calm - N/A Snow Light Snow
3:33 AM -0.4 °F - -4.0 °F 85% 30.24 in 10.0 mi Calm Calm - N/A Snow Light Snow
3:53 AM -0.4 °F -8.3 °F -4.0 °F 85% 30.24 in 10.0 mi ESE 3.5 mph - N/A Snow Light Snow
4:13 AM 1.4 °F -6.2 °F -2.2 °F 85% 30.23 in 10.0 mi SE 3.5 mph - N/A   Overcast
4:33 AM 1.4 °F - -2.2 °F 85% 30.22 in 10.0 mi Calm Calm - N/A   Overcast
4:53 AM 3.2 °F -4.2 °F -0.4 °F 85% 30.22 in 10.0 mi SSE 3.5 mph - N/A   Overcast
5:13 AM 3.2 °F -6.2 °F -0.4 °F 85% 30.21 in 10.0 mi SSE 4.6 mph - N/A   Overcast
5:33 AM 3.2 °F -6.2 °F -0.4 °F 85% 30.20 in 10.0 mi SSE 4.6 mph - N/A   Overcast
5:53 AM 3.2 °F -6.2 °F 1.4 °F 92% 30.20 in 10.0 mi SE 4.6 mph - N/A   Overcast
6:14 AM 5.0 °F -4.1 °F 1.4 °F 85% 30.20 in 10.0 mi SE 4.6 mph - N/A   Overcast
6:33 AM 5.0 °F -2.1 °F 1.4 °F 85% 30.21 in 10.0 mi SE 3.5 mph - N/A   Overcast
6:53 AM 5.0 °F -4.1 °F 1.4 °F 85% 30.20 in 10.0 mi SE 4.6 mph - N/A   Overcast
7:14 AM 6.8 °F -2.0 °F 3.2 °F 85% 30.20 in 10.0 mi SE 4.6 mph - N/A   Overcast
7:33 AM 6.8 °F -3.5 °F 3.2 °F 85% 30.20 in 10.0 mi ESE 5.8 mph - N/A   Overcast
7:53 AM 6.8 °F -3.5 °F 3.2 °F 85% 30.19 in 10.0 mi SE 5.8 mph - N/A   Overcast
8:13 AM 6.8 °F -4.8 °F 3.2 °F 85% 30.19 in 10.0 mi SE 6.9 mph - N/A   Overcast
8:34 AM 6.8 °F -2.0 °F 3.2 °F 85% 30.19 in 10.0 mi ESE 4.6 mph - N/A   Overcast
8:53 AM 8.6 °F 0.1 °F 3.2 °F 79% 30.19 in 10.0 mi ESE 4.6 mph - N/A   Overcast
9:13 AM 8.6 °F 0.1 °F 3.2 °F 79% 30.19 in 10.0 mi ESE 4.6 mph - N/A   Overcast
9:33 AM 8.6 °F -2.6 °F 5.0 °F 85% 30.18 in 10.0 mi SE 6.9 mph - N/A   Overcast
9:54 AM 10.4 °F 2.2 °F 5.0 °F 79% 30.17 in 10.0 mi SE 4.6 mph - N/A Snow Light Snow
10:13 AM 10.4 °F 4.0 °F 6.8 °F 85% 30.17 in 10.0 mi SE 3.5 mph - N/A Snow Light Snow
10:33 AM 10.4 °F 0.8 °F 6.8 °F 85% 30.17 in 10.0 mi SE 5.8 mph - N/A Snow Light Snow
10:53 AM 12.2 °F 2.9 °F 6.8 °F 79% 30.16 in 10.0 mi SSE 5.8 mph - N/A   Overcast
11:13 AM 12.2 °F 4.3 °F 8.6 °F 85% 30.15 in 10.0 mi SSE 4.6 mph - N/A   Overcast
11:33 AM 15.8 °F 10.2 °F 10.4 °F 79% 30.14 in 10.0 mi SSE 3.5 mph - N/A   Overcast
11:53 AM 17.6 °F 9.3 °F 10.4 °F 73% 30.13 in 10.0 mi South 5.8 mph - N/A   Overcast
12:13 PM 19.4 °F 14.3 °F 14.0 °F 80% 30.11 in 10.0 mi South 3.5 mph - N/A   Overcast
12:33 PM 21.2 °F 16.4 °F 15.8 °F 80% 30.11 in 10.0 mi SSW 3.5 mph - N/A   Overcast
12:53 PM 24.8 °F 13.4 °F 19.4 °F 80% 30.10 in 10.0 mi WSW 12.7 mph 18.4 mph N/A   Overcast
1:14 PM 24.8 °F 12.9 °F 19.4 °F 80% 30.09 in 10.0 mi SW 13.8 mph - N/A   Overcast
1:33 PM 24.8 °F 12.9 °F 19.4 °F 80% 30.09 in 10.0 mi SW 13.8 mph - N/A   Overcast
1:53 PM 24.8 °F 11.9 °F 19.4 °F 80% 30.08 in 10.0 mi WSW 16.1 mph - N/A   Overcast
2:13 PM 24.8 °F 12.9 °F 19.4 °F 80% 30.08 in 10.0 mi WSW 13.8 mph - N/A   Overcast
2:33 PM 24.8 °F 12.4 °F 19.4 °F 80% 30.08 in 10.0 mi WSW 15.0 mph - N/A   Overcast
2:54 PM 24.8 °F 14.0 °F 19.4 °F 80% 30.07 in 10.0 mi WSW 11.5 mph - N/A   Overcast
3:13 PM 24.8 °F 14.6 °F 19.4 °F 80% 30.08 in 10.0 mi SW 10.4 mph - N/A   Overcast
3:33 PM 24.8 °F 14.0 °F 19.4 °F 80% 30.07 in 10.0 mi SW 11.5 mph - N/A   Overcast
3:53 PM 24.8 °F 16.1 °F 19.4 °F 80% 30.06 in 10.0 mi SW 8.1 mph - N/A   Overcast
4:13 PM 24.8 °F 16.9 °F 19.4 °F 80% 30.06 in 10.0 mi SSW 6.9 mph - N/A   Overcast
4:33 PM 23.0 °F 14.7 °F 19.4 °F 86% 30.06 in 10.0 mi SSW 6.9 mph - N/A   Overcast
4:54 PM 23.0 °F 15.8 °F 19.4 °F 86% 30.05 in 10.0 mi South 5.8 mph - N/A   Overcast
5:13 PM 23.0 °F 17.0 °F 19.4 °F 86% 30.05 in 10.0 mi South 4.6 mph - N/A   Overcast
5:33 PM 23.0 °F 15.8 °F 19.4 °F 86% 30.04 in 10.0 mi South 5.8 mph - N/A   Overcast
5:53 PM 23.0 °F 17.0 °F 19.4 °F 86% 30.04 in 10.0 mi South 4.6 mph - N/A   Overcast
6:13 PM 24.8 °F 16.1 °F 19.4 °F 80% 30.03 in 10.0 mi SW 8.1 mph - N/A   Overcast
6:34 PM 24.8 °F 14.6 °F 19.4 °F 80% 30.02 in 10.0 mi WSW 10.4 mph - N/A   Overcast
6:53 PM 24.8 °F 14.6 °F 19.4 °F 80% 30.02 in 10.0 mi SW 10.4 mph - N/A   Overcast
7:13 PM 24.8 °F 14.6 °F 19.4 °F 80% 30.02 in 10.0 mi SW 10.4 mph - N/A   Overcast
7:33 PM 24.8 °F 16.9 °F 19.4 °F 80% 30.01 in 10.0 mi SW 6.9 mph - N/A   Overcast
7:53 PM 24.8 °F 16.1 °F 19.4 °F 80% 30.01 in 10.0 mi SW 8.1 mph - N/A   Overcast
8:14 PM 24.8 °F 17.9 °F 19.4 °F 80% 30.01 in 10.0 mi SW 5.8 mph - N/A   Overcast
8:33 PM 24.8 °F 14.6 °F 19.4 °F 80% 30.00 in 10.0 mi SW 10.4 mph - N/A   Overcast
8:53 PM 23.0 °F 13.1 °F 19.4 °F 86% 29.99 in 10.0 mi SW 9.2 mph - N/A   Overcast
9:13 PM 23.0 °F 13.1 °F 19.4 °F 86% 29.98 in 10.0 mi SSW 9.2 mph - N/A   Overcast
9:33 PM 21.2 °F 13.6 °F 17.6 °F 86% 29.98 in 10.0 mi SW 5.8 mph - N/A   Scattered Clouds
9:54 PM 19.4 °F 12.8 °F 15.8 °F 86% 29.98 in 10.0 mi SSW 4.6 mph - N/A   Clear
10:14 PM 19.4 °F 11.5 °F 15.8 °F 86% 29.97 in 10.0 mi SSW 5.8 mph - N/A   Clear
10:33 PM 17.6 °F 9.3 °F 15.8 °F 93% 29.97 in 10.0 mi SSW 5.8 mph - N/A   Clear
10:54 PM 17.6 °F 9.3 °F 14.0 °F 86% 29.97 in 10.0 mi SSW 5.8 mph - N/A   Clear
11:13 PM 15.8 °F 6.1 °F 14.0 °F 93% 29.97 in 10.0 mi SSW 6.9 mph - N/A   Clear
11:33 PM 15.8 °F 7.2 °F 12.2 °F 86% 29.97 in 10.0 mi SSW 5.8 mph - N/A   Clear
11:53 PM 15.8 °F 6.1 °F 12.2 °F 86% 29.97 in 10.0 mi SW 6.9 mph - N/A   Clear